DW5018 Weather Reports


Display with metric or nautical units.
time (UTC)temp
F
wind
direction
speed
MPH
gust
MPH
rain 1hr
in
rain 24hr
in
rain mn
in
humidity
%
barometer
mb
20260504151010 64 230 3.0 6.0 0.00 0.00 0.00 52 1015.2
20260504150503 64 242 3.0 6.0 0.00 0.00 0.00 51 1015.2
20260504141003 60 304 4.0 7.0 0.00 0.00 0.00 60 1015.4
20260504140503 60 264 4.0 10.0 0.00 0.00 0.00 60 1015.4
20260504130502 57 259 8.0 10.0 0.00 0.00 0.00 62 1015.8
20260504110504 55 224 5.0 13.0 0.00 0.00 0.00 66 1016.4
20260504100503 55 229 9.0 19.0 0.00 0.00 0.00 65 1016.4
20260504082008 55 234 4.0 10.0 0.00 0.00 0.00 68 1016.5
20260504081512 55 211 4.0 8.0 0.00 0.00 0.00 67 1016.5
20260504081006 55 212 2.0 8.0 0.00 0.00 0.00 69 1016.5
20260504080507 55 195 2.0 10.0 0.00 0.00 0.00 68 1016.5
20260504050502 57 206 2.0 9.0 0.00 0.00 0.00 60 1016.6
20260504050009 57 169 3.0 10.0 0.00 0.00 0.00 60 1016.7
20260504045503 57 184 5.0 10.0 0.00 0.00 0.00 58 1016.6
20260504045007 58 165 4.0 10.0 0.00 0.00 0.00 60 1016.6
20260504044519 58 153 2.0 8.0 0.00 0.00 0.00 62 1016.6
20260504044007 58 203 5.0 8.0 0.00 0.00 0.00 61 1016.7
20260504043506 58 162 2.0 7.0 0.00 0.00 0.00 61 1016.7
20260504043027 57 193 3.0 8.0 0.00 0.00 0.00 63 1016.7
20260504042508 57 177 3.0 8.0 0.00 0.00 0.00 62 1016.7
20260504042008 57 157 3.0 8.0 0.00 0.00 0.00 61 1016.7
20260504041524 57 181 4.0 8.0 0.00 0.00 0.00 63 1016.7
20260504041007 58 170 3.0 8.0 0.00 0.00 0.00 61 1016.7
20260504040509 58 193 2.0 8.0 0.00 0.00 0.00 61 1016.6
20260504040012 58 178 3.0 7.0 0.00 0.00 0.00 61 1016.5
20260504035503 58 166 4.0 7.0 0.00 0.00 0.00 60 1016.5
20260504035005 58 179 2.0 5.0 0.00 0.00 0.00 63 1016.5
20260504034511 58 193 2.0 5.0 0.00 0.00 0.00 62 1016.6
20260504034010 58 175 2.0 5.0 0.00 0.00 0.00 63 1016.6
20260504033511 58 173 1.0 5.0 0.00 0.00 0.00 63 1016.6
20260504033019 58 168 2.0 7.0 0.00 0.00 0.00 61 1016.6
20260504032507 58 176 3.0 7.0 0.00 0.00 0.00 57 1016.5
20260504032007 58 196 2.0 6.0 0.00 0.00 0.00 60 1016.5
20260504031521 58 185 2.0 8.0 0.00 0.00 0.00 59 1016.5
20260504031013 58 181 2.0 8.0 0.00 0.00 0.00 59 1016.4
20260504030512 58 185 3.0 7.0 0.00 0.00 0.00 58 1016.4
20260504030020 58 192 4.0 7.0 0.00 0.00 0.00 58 1016.5
20260504025512 58 167 1.0 6.0 0.00 0.00 0.00 63 1016.4
20260504025004 59 187 3.0 6.0 0.00 0.00 0.00 61 1016.5
20260504024514 59 180 1.0 4.0 0.00 0.00 0.00 60 1016.4
20260504024004 59 180 2.0 4.0 0.00 0.00 0.00 60 1016.4
20260504023504 59 190 1.0 4.0 0.00 0.00 0.00 60 1016.4
20260504023003 59 191 2.0 5.0 0.00 0.00 0.00 60 1016.4
20260504022502 59 176 1.0 5.0 0.00 0.00 0.00 59 1016.5
20260504022003 59 191 3.0 6.0 0.00 0.00 0.00 58 1016.5
20260504021503 59 185 3.0 6.0 0.00 0.00 0.00 58 1016.5
20260504021004 59 186 3.0 6.0 0.00 0.00 0.00 58 1016.4
20260504020504 59 195 3.0 5.0 0.00 0.00 0.00 58 1016.4
20260504020003 59 200 2.0 4.0 0.00 0.00 0.00 58 1016.3
20260504015503 59 199 1.0 7.0 0.00 0.00 0.00 58 1016.3
20260504015005 59 199 2.0 7.0 0.00 0.00 0.00 58 1016.3
20260504014508 58 193 4.0 6.0 0.00 0.00 0.00 59 1016.2
20260504014004 58 174 0.0 2.0 0.00 0.00 0.00 65 1016.2
20260504013505 58 174 0.0 3.0 0.00 0.00 0.00 65 1016.2
20260504013017 58 174 1.0 3.0 0.00 0.00 0.00 64 1016.3
20260504012504 58 176 2.0 6.0 0.00 0.00 0.00 66 1016.2
20260504012007 57 181 3.0 6.0 0.00 0.00 0.00 70 1016.2
20260504011508 56 180 0.0 3.0 0.00 0.00 0.00 67 1016.0
20260504011002 56 332 0.0 0.0 0.00 0.00 0.00 65 1016.0
20260504010504 56 332 0.0 0.0 0.00 0.00 0.00 63 1015.9
20260504010005 56 332 0.0 0.0 0.00 0.00 0.00 62 1015.9
20260504005504 56 332 0.0 2.0 0.00 0.00 0.00 64 1015.8
20260504005006 56 332 0.0 2.0 0.00 0.00 0.00 64 1015.8
20260504004506 55 331 0.0 2.0 0.00 0.00 0.00 63 1015.8
20260504004005 55 330 0.0 0.0 0.00 0.00 0.00 63 1015.8
20260504003506 55 330 0.0 0.0 0.00 0.00 0.00 63 1015.8
20260504003006 55 330 0.0 0.0 0.00 0.00 0.00 60 1015.7
20260504002504 56 330 0.0 0.0 0.00 0.00 0.00 59 1015.6
20260504002009 56 331 0.0 0.0 0.00 0.00 0.00 61 1015.5
20260504001516 57 332 0.0 0.0 0.00 0.00 0.00 60 1015.5
20260504001005 57 332 0.0 0.0 0.00 0.00 0.00 59 1015.4
20260504000507 57 331 0.0 0.0 0.00 0.00 0.00 55 1015.3
20260504000003 58 331 0.0 0.0 0.00 0.00 0.00 55 1015.3
20260503235502 59 333 0.0 2.0 0.00 0.00 0.00 53 1015.3
20260503235003 60 330 1.0 2.0 0.00 0.00 0.00 51 1015.2
20260503234506 61 330 1.0 2.0 0.00 0.00 0.00 49 1015.2
20260503234006 62 330 0.0 2.0 0.00 0.00 0.00 47 1015.2
20260503233502 62 330 0.0 2.0 0.00 0.00 0.00 45 1015.2
20260503233005 62 282 0.0 4.0 0.00 0.00 0.00 43 1015.2
20260503232505 62 282 2.0 5.0 0.00 0.00 0.00 43 1015.1
20260503232005 62 276 2.0 5.0 0.00 0.00 0.00 43 1015.1
20260503231514 62 283 3.0 5.0 0.00 0.00 0.00 45 1015.1
20260503231007 62 278 2.0 7.0 0.00 0.00 0.00 43 1015.0
20260503230507 62 276 4.0 7.0 0.00 0.00 0.00 45 1015.1
20260503230012 62 297 3.0 7.0 0.00 0.00 0.00 41 1015.1
20260503225510 62 281 4.0 8.0 0.00 0.00 0.00 40 1015.1
20260503225009 62 278 5.0 9.0 0.00 0.00 0.00 44 1015.2
20260503224506 62 280 6.0 9.0 0.00 0.00 0.00 43 1015.2
20260503224003 62 293 5.0 11.0 0.00 0.00 0.00 42 1015.2
20260503223502 63 306 4.0 12.0 0.00 0.00 0.00 40 1015.2
20260503223004 62 281 4.0 12.0 0.00 0.00 0.00 41 1015.2
20260503222503 62 291 5.0 12.0 0.00 0.00 0.00 39 1015.2
20260503222006 62 321 6.0 12.0 0.00 0.00 0.00 44 1015.1
20260503221508 62 271 6.0 11.0 0.00 0.00 0.00 42 1015.1
20260503221009 62 283 7.0 10.0 0.00 0.00 0.00 44 1015.2
20260503220506 62 324 5.0 13.0 0.00 0.00 0.00 38 1015.3
20260503220014 62 288 4.0 14.0 0.00 0.00 0.00 40 1015.3
20260503215507 62 293 9.0 14.0 0.00 0.00 0.00 40 1015.5
20260503215006 62 260 8.0 14.0 0.00 0.00 0.00 41 1015.4
20260503214521 62 316 6.0 15.0 0.00 0.00 0.00 42 1015.4
20260503214009 62 286 9.0 16.0 0.00 0.00 0.00 43 1015.4
20260503213506 62 276 9.0 16.0 0.00 0.00 0.00 41 1015.4
20260503213003 62 286 9.0 16.0 0.00 0.00 0.00 41 1015.4
20260503212503 61 297 8.0 15.0 0.00 0.00 0.00 40 1015.4
20260503212002 61 257 8.0 15.0 0.00 0.00 0.00 44 1015.5
20260503211507 61 281 10.0 14.0 0.00 0.00 0.00 41 1015.5
20260503211006 62 262 9.0 15.0 0.00 0.00 0.00 42 1015.4
20260503210507 62 281 6.0 17.0 0.00 0.00 0.00 40 1015.4
20260503210010 62 279 10.0 17.0 0.00 0.00 0.00 42 1015.4
20260503205504 62 296 6.0 17.0 0.00 0.00 0.00 42 1015.4
20260503205007 61 290 7.0 17.0 0.00 0.00 0.00 41 1015.4
20260503204519 61 276 8.0 19.0 0.00 0.00 0.00 42 1015.4
20260503204008 61 287 8.0 19.0 0.00 0.00 0.00 39 1015.4
20260503203507 61 278 8.0 20.0 0.00 0.00 0.00 42 1015.4
20260503203021 61 307 12.0 20.0 0.00 0.00 0.00 41 1015.5
20260503202510 61 296 8.0 17.0 0.00 0.00 0.00 38 1015.5
20260503202012 60 321 9.0 17.0 0.00 0.00 0.00 41 1015.5
20260503201506 61 287 11.0 16.0 0.00 0.00 0.00 43 1015.6
20260503201003 61 307 4.0 19.0 0.00 0.00 0.00 42 1015.8
20260503200504 60 350 8.0 19.0 0.00 0.00 0.00 40 1015.9
20260503200008 60 281 9.0 14.0 0.00 0.00 0.00 41 1015.9
20260503195508 59 281 7.0 16.0 0.00 0.00 0.00 43 1015.9
20260503195006 59 269 11.0 16.0 0.00 0.00 0.00 43 1016.0
20260503194514 59 283 10.0 16.0 0.00 0.00 0.00 44 1016.1
20260503194007 59 282 12.0 18.0 0.00 0.00 0.00 42 1016.2
20260503193507 59 271 12.0 18.0 0.00 0.00 0.00 41 1016.3
20260503193020 59 280 8.0 16.0 0.00 0.00 0.00 44 1016.3
20260503192507 59 303 10.0 19.0 0.00 0.00 0.00 44 1016.5
20260503192010 59 339 11.0 19.0 0.00 0.00 0.00 44 1016.5
20260503191531 59 285 7.0 16.0 0.00 0.00 0.00 44 1016.6
20260503191011 59 293 7.0 18.0 0.00 0.00 0.00 45 1016.5
20260503190510 58 274 9.0 18.0 0.00 0.00 0.00 44 1016.6
20260503190007 58 274 11.0 16.0 0.00 0.00 0.00 46 1016.7
20260503185504 58 273 6.0 13.0 0.00 0.00 0.00 47 1016.9
20260503185004 57 267 8.0 13.0 0.00 0.00 0.00 46 1016.8
20260503184511 58 281 7.0 11.0 0.00 0.00 0.00 45 1016.9
20260503184007 58 280 7.0 15.0 0.00 0.00 0.00 53 1017.0
20260503183508 57 278 7.0 15.0 0.00 0.00 0.00 46 1017.0
20260503183012 57 263 11.0 16.0 0.00 0.00 0.00 48 1017.0
20260503182507 57 266 11.0 16.0 0.00 0.00 0.00 48 1017.0
20260503182010 57 260 10.0 16.0 0.00 0.00 0.00 47 1016.9
20260503181518 57 270 10.0 15.0 0.00 0.00 0.00 46 1017.0
20260503181011 57 284 9.0 18.0 0.00 0.00 0.00 49 1016.9
20260503180515 56 304 10.0 19.0 0.00 0.00 0.00 48 1017.0
20260503180032 57 280 11.0 19.0 0.00 0.00 0.00 46 1017.0
20260503175510 56 1 7.0 14.0 0.00 0.00 0.00 45 1017.1
20260503175004 56 297 5.0 14.0 0.00 0.00 0.00 48 1017.2
20260503174507 56 285 8.0 15.0 0.00 0.00 0.00 52 1017.3
20260503174006 56 294 9.0 17.0 0.00 0.00 0.00 48 1017.2
20260503173507 56 301 8.0 17.0 0.00 0.00 0.00 49 1017.3
20260503173014 56 271 7.0 16.0 0.00 0.00 0.00 50 1017.2
20260503172501 56 314 5.0 16.0 0.00 0.00 0.00 49 1017.3
20260503172002 56 283 7.0 18.0 0.00 0.00 0.00 46 1017.4
20260503171503 56 276 9.0 18.0 0.00 0.00 0.00 45 1017.5
20260503171003 55 272 8.0 19.0 0.00 0.00 0.00 49 1017.5
20260503170503 56 278 8.0 19.0 0.00 0.00 0.00 45 1017.7